Location: Étouvelles
(49.5207°N, 3.5808°E)
Time: 14:43:32
(UTC+00:00)

Cosmos 1544 Rocket - Pass Details

Date: 03 February 2023
Orbit: 604 x 628 km, 82.5° (Epoch: 25 March)

Event Time Altitude Azimuth Distance (km) Brightness Sun altitude
Rises 17:19:56 0° 347° (NNW) 2,873 6.9 -6.2°
Reaches altitude 10° 17:22:11 10° 343° (NNW) 1,964 6.1 -6.6°
Maximum altitude 17:26:27 59° 265° (W) 703 4.3 -7.2°
Drops below altitude 10° 17:30:41 10° 186° (S) 1,952 6.4 -7.9°
Sets 17:32:55 0° 182° (S) 2,854 7.2 -8.2°
